Theta_e
348 353 360 361 359 360 363 367 369 368 369 369 369 369 368 367 368 367 367 366 364 364 362 361 361 359 359 359 359 358 360 357 357 357 357 356 354 356 355 355 358 354 355
350 353 360 362 362 362 363 367 367 368 368 368 368 368 367 366 365 366 366 364 363 363 361 361 360 359 359 358 357 358 358 358 357 357 355 354 353 356 358 358 358 352 355
351 354 355 362 363 363 366 366 366 367 367 368 368 368 367 366 365 366 364 363 362 361 360 360 360 359 358 358 357 355 356 355 355 355 356 349 349 357 357 358 358 356 355
352 353 355 362 364 363 365 366 366 365 365 368 367 368 367 366 366 363 363 362 361 361 360 360 360 359 358 358 357 356 356 355 355 355 354 347 349 357 358 358 358 356 355
349 353 357 363 365 365 364 366 366 365 364 365 367 366 365 363 363 362 362 361 361 361 360 360 359 359 359 358 357 356 357 357 357 356 351 342 346 354 358 357 358 358 357
352 357 363 365 363 364 364 366 364 364 364 366 367 366 364 362 362 361 361 360 360 360 361 361 359 358 358 357 355 355 357 358 358 353 344 352 348 357 356 357 358 356 357
351 357 360 366 367 366 365 366 364 363 364 367 367 366 364 363 362 360 359 359 359 359 360 361 359 357 356 357 357 357 358 358 354 353 346 347 350 360 358 358 356 357 357
351 355 358 365 366 367 365 365 363 363 363 367 366 366 366 364 363 363 359 359 358 358 359 359 359 358 356 355 358 358 358 356 354 350 349 350 357 357 357 356 356 357 357
353 354 356 358 361 366 367 364 363 363 363 366 365 365 364 362 359 360 360 358 358 357 357 358 359 361 361 360 359 360 359 358 340 348 350 348 358 352 354 355 356 354 355
352 354 354 356 357 357 358 363 362 363 363 363 362 362 361 361 360 360 363 362 359 358 357 357 360 362 363 364 360 361 358 353 341 342 350 350 359 357 354 354 357 356 356
352 352 354 355 356 354 354 358 362 363 363 363 361 363 363 355 351 359 360 363 360 359 361 359 364 363 365 362 360 357 353 347 345 348 350 355 358 358 358 357 357 357 356
346 350 353 354 355 353 355 353 353 355 354 353 354 354 356 352 352 356 361 364 361 360 361 360 361 346 357 352 353 356 343 339 339 336 353 357 361 360 356 357 357 357 357
347 349 351 353 355 353 351 352 353 353 352 352 351 353 355 357 351 355 355 356 349 361 354 357 356 346 348 350 352 350 351 337 340 346 352 357 360 362 358 355 356 357 355
343 346 348 348 351 350 353 351 352 352 352 351 354 357 353 351 348 351 354 354 354 354 355 353 349 349 349 352 349 349 345 348 350 349 348 358 359 361 361 358 355 355 356
343 346 350 351 352 352 352 349 350 352 354 353 354 354 351 348 351 354 352 352 353 354 352 349 351 352 349 347 350 349 343 345 349 351 351 359 361 361 361 361 358 357 356
344 347 351 352 355 351 354 355 358 355 351 352 353 354 355 352 353 352 355 352 352 353 352 355 352 351 351 352 351 348 347 343 340 350 352 353 359 360 362 362 362 360 358
343 346 350 351 355 353 353 355 352 354 349 348 354 355 354 354 353 353 352 351 352 356 352 353 353 352 353 353 348 348 346 336 335 337 345 350 353 360 361 363 362 361 361
344 349 352 353 352 352 353 356 352 349 350 352 353 352 356 358 355 352 351 351 355 355 354 348 346 348 346 340 331 330 333 333 335 337 338 338 349 352 358 361 363 361 360
343 348 347 350 351 352 354 357 354 353 354 354 351 352 353 357 357 353 353 353 355 351 349 348 344 344 334 332 330 332 335 335 337 340 338 337 339 350 349 357 357 357 356
345 349 348 349 353 353 356 355 355 353 356 354 350 354 354 357 358 353 351 351 351 349 348 345 343 339 333 334 336 333 333 334 336 341 335 340 342 346 351 350 351 350 357
347 349 346 348 353 354 353 352 351 348 352 352 354 356 355 356 356 352 352 351 351 348 345 348 336 330 332 336 328 331 333 336 335 332 333 332 334 347 349 345 346 350 353
345 348 348 349 356 354 354 352 351 348 351 351 351 352 353 357 355 353 350 349 351 350 345 335 333 330 333 335 325 327 325 330 334 334 332 330 331 340 342 342 340 345 346
343 348 349 351 356 355 355 355 353 352 353 353 351 352 358 357 357 353 352 351 349 345 337 335 333 332 329 335 329 328 321 321 330 333 331 328 330 332 333 331 332 333 343
344 349 350 352 357 354 356 351 348 345 344 348 352 350 353 356 355 355 354 350 345 342 338 335 337 334 331 325 334 333 329 328 322 323 328 327 327 326 329 327 326 327 336
345 348 352 352 356 354 352 354 351 348 348 346 344 350 353 352 353 354 354 347 339 341 341 336 334 333 336 334 332 333 327 326 326 320 319 325 330 327 325 326 327 326 329
345 350 353 352 352 357 352 353 353 351 347 341 347 349 351 347 348 350 351 344 340 339 338 337 338 335 333 333 332 331 325 325 323 323 319 319 324 327 326 325 324 326 326
Wind_Speed
5 10 18 19 20 20 18 17 18 17 16 18 18 17 17 16 17 13 15 14 13 11 11 11 10 9 8 8 9 7 10 10 10 10 11 12 12 12 8 10 15 12 14
9 11 17 18 20 19 18 18 17 16 16 17 16 15 16 16 15 13 14 12 12 11 11 10 10 8 7 7 6 6 8 7 7 8 9 10 12 12 12 16 17 13 14
12 11 14 17 17 18 17 17 17 16 16 16 15 15 15 15 13 13 13 12 11 11 10 9 8 7 7 6 4 4 6 5 3 5 7 4 4 13 14 17 17 16 15
14 11 10 15 16 17 16 16 15 15 16 15 13 14 14 13 12 13 12 11 10 9 8 8 7 6 6 5 4 2 3 4 3 5 5 6 8 14 14 16 16 16 16
14 11 12 16 16 16 16 15 14 14 15 14 13 13 13 12 12 11 10 9 9 7 7 6 5 5 5 5 3 3 4 4 3 3 9 6 4 11 14 13 15 16 15
15 12 15 17 18 17 15 14 14 14 13 12 11 12 11 11 10 9 8 8 6 5 5 6 5 4 4 4 3 2 4 6 5 6 6 9 6 12 12 14 13 15 16
13 11 12 16 17 16 15 14 14 13 12 11 11 10 10 10 9 7 7 5 3 4 3 5 5 3 2 2 4 4 6 5 5 4 6 7 7 12 13 13 13 14 15
15 12 11 16 15 15 15 15 13 12 11 10 9 9 8 7 6 5 5 4 2 2 3 3 4 2 1 0 3 2 5 6 10 8 3 4 11 14 12 12 13 13 14
15 12 10 9 12 16 14 14 13 12 11 9 7 6 5 4 3 3 3 3 3 1 1 2 1 1 1 1 4 5 9 19 10 3 3 2 11 13 14 12 12 12 13
14 13 10 8 7 7 7 14 13 12 11 9 7 7 5 4 5 6 5 4 4 3 2 1 2 5 6 2 3 4 20 18 5 5 1 3 12 15 12 12 13 12 11
13 12 11 10 8 7 6 9 11 12 9 9 8 8 7 4 4 6 7 11 4 4 6 2 5 5 6 6 2 5 20 7 3 5 3 7 10 15 15 12 13 14 13
15 15 13 12 11 11 9 7 6 6 5 5 6 6 4 4 3 4 11 8 6 4 6 4 4 4 8 4 1 5 7 9 10 6 3 13 13 14 15 14 14 13 12
18 12 15 15 13 13 9 7 5 4 4 4 6 6 6 5 3 4 2 2 1 6 2 3 2 3 4 4 2 4 8 10 3 2 6 13 12 14 16 14 14 14 12
16 14 13 13 13 10 8 7 7 6 6 5 6 7 4 2 2 3 4 4 3 1 3 3 2 1 5 4 3 4 4 7 5 3 5 15 15 15 16 16 14 14 13
14 13 16 13 10 10 11 6 5 7 7 7 7 7 5 3 1 2 2 2 1 1 0 3 4 3 1 3 3 2 2 1 9 5 5 16 15 16 15 16 15 14 13
14 15 13 14 10 13 7 7 4 4 6 7 5 5 7 4 3 4 2 2 3 1 1 3 1 2 3 3 3 3 4 2 6 7 6 7 15 15 15 14 15 14 14
14 12 16 14 10 8 8 4 1 1 2 3 5 6 5 3 4 4 2 2 1 0 2 2 2 3 4 4 5 4 3 3 4 6 6 5 6 12 12 13 11 12 15
13 18 17 15 12 8 7 5 3 2 2 3 5 5 7 6 5 3 2 2 2 2 3 1 1 3 4 3 3 3 1 2 3 4 4 4 4 5 9 13 12 11 11
12 16 18 15 14 11 7 6 5 4 2 4 4 5 6 7 6 4 3 3 2 2 2 1 1 2 1 3 4 4 2 1 3 2 4 3 4 4 3 9 9 9 8
14 13 13 9 15 13 8 6 4 3 4 3 4 4 6 6 7 5 2 3 3 2 3 1 1 1 1 2 3 4 4 2 3 4 2 4 5 5 5 4 2 2 6
14 14 14 10 12 11 7 7 4 4 3 3 4 6 8 6 7 6 3 3 3 4 4 3 2 2 3 1 2 5 3 3 4 3 4 5 6 5 7 5 3 3 4
15 16 15 13 11 12 9 5 4 4 3 3 2 5 7 8 7 6 6 3 3 2 5 4 3 1 2 1 3 2 3 3 3 2 4 4 6 5 7 5 6 5 5
18 17 16 14 12 12 11 6 3 2 1 2 3 5 8 7 6 6 6 4 4 5 5 4 3 4 1 3 2 4 2 1 1 3 4 3 6 3 4 5 6 6 6
17 17 17 14 14 11 10 10 7 5 5 4 6 7 5 7 7 7 7 7 6 5 6 5 5 4 4 1 2 1 2 3 3 1 3 1 2 5 5 3 5 5 7
19 19 18 18 15 14 12 10 8 5 7 5 3 6 6 6 7 7 7 8 7 5 5 6 4 4 3 4 2 0 2 1 2 3 2 2 2 3 3 5 5 5 6
19 19 18 20 18 15 14 11 11 9 8 5 4 6 7 5 5 7 8 7 6 6 6 5 6 6 3 2 2 3 3 2 2 3 2 2 3 4 4 3 4 5 5
Wind_Direction
130 135 129 121 119 122 123 118 104 103 102 97 96 97 100 100 96 102 99 101 101 100 92 83 78 75 84 89 95 97 93 94 95 94 94 92 97 96 94 115 119 108 104
133 134 129 121 119 122 118 112 107 109 104 101 101 103 104 100 107 105 101 102 100 96 92 89 85 78 78 84 92 95 97 98 99 99 111 103 111 100 80 120 116 113 109
129 130 129 126 118 118 116 115 114 112 107 107 108 109 106 110 113 106 104 105 101 96 92 88 89 91 83 76 72 75 96 105 108 132 133 108 109 107 109 116 118 115 109
142 134 129 125 122 123 119 117 120 119 111 106 112 108 109 110 108 107 109 108 105 99 95 90 93 95 94 89 79 39 59 106 146 205 168 151 123 115 114 122 120 116 114
132 127 135 130 128 127 126 126 124 120 116 119 116 113 114 115 112 110 109 104 99 96 90 89 88 92 96 93 77 26 16 10 21 11 110 115 116 126 121 123 125 123 119
125 130 134 132 131 133 135 131 128 123 121 124 121 116 120 119 116 109 102 103 105 100 86 81 80 78 88 95 92 23 359 338 40 71 103 122 109 129 130 129 124 119 121
125 130 133 134 136 141 141 138 135 132 128 130 128 129 126 125 119 119 111 108 111 91 77 71 82 84 104 102 64 15 351 346 51 74 104 124 121 125 123 125 123 121 121
132 133 140 143 140 140 143 140 141 138 136 140 133 126 128 130 134 136 133 147 138 101 59 61 87 114 179 78 75 40 352 3 72 111 112 133 133 134 131 131 129 125 126
134 138 141 144 147 149 143 145 145 147 147 143 132 136 142 140 164 201 198 189 188 154 84 36 27 224 285 7 31 21 24 57 43 26 129 216 140 137 141 142 136 135 135
137 141 149 152 139 132 145 150 152 153 156 143 157 177 175 188 206 240 239 254 263 248 225 179 351 335 331 347 74 64 71 90 128 315 221 239 157 148 146 152 148 141 142
144 149 153 152 153 148 155 160 158 163 168 167 193 195 196 203 221 235 217 232 186 251 269 290 36 358 315 329 137 169 82 111 43 281 332 210 176 159 155 170 156 149 150
152 157 160 164 167 164 165 161 168 181 186 187 209 200 208 230 217 219 234 189 185 195 263 339 94 2 337 343 110 135 123 140 174 202 254 198 186 175 165 169 162 160 162
153 165 166 168 172 174 163 172 184 190 191 200 217 209 182 212 259 234 182 244 8 209 230 206 138 317 309 291 259 134 147 169 222 120 233 198 188 191 176 172 169 170 171
160 171 164 171 169 174 162 178 188 185 194 195 198 210 192 230 198 167 167 204 235 233 228 170 222 287 258 283 41 30 93 166 174 165 223 197 193 190 181 174 176 178 182
170 170 168 175 167 164 174 181 191 199 197 191 196 185 181 177 96 107 158 192 90 131 189 137 176 220 297 357 356 339 10 147 162 167 173 185 195 195 190 182 179 184 186
172 170 164 169 167 165 177 173 176 197 172 173 166 183 183 160 129 106 42 359 337 11 286 131 308 347 330 324 285 257 253 285 154 161 181 194 194 193 186 189 187 188 192
179 174 169 169 165 162 163 159 148 114 115 122 161 163 166 146 136 136 146 279 342 31 193 72 351 339 332 324 310 242 243 203 134 150 170 188 197 194 182 189 199 197 198
168 159 160 174 173 165 157 161 176 239 156 157 131 175 179 165 152 147 195 290 251 167 114 131 354 349 339 357 291 304 284 248 256 195 201 165 176 183 194 188 191 204 216
165 154 170 168 171 170 170 160 184 212 229 195 160 178 170 160 169 166 189 243 167 142 99 118 48 123 335 335 337 354 308 339 14 144 162 189 159 163 156 196 191 209 222
166 160 170 162 169 172 173 163 176 188 220 197 200 173 174 177 173 186 159 172 180 96 111 146 128 341 67 284 330 336 320 357 45 60 87 67 34 126 128 119 158 189 206
167 165 175 168 162 169 171 171 155 166 191 218 212 156 179 173 149 175 168 188 166 155 173 161 125 64 342 323 50 348 333 333 73 85 76 71 71 102 97 106 82 96 89
175 175 177 177 153 172 173 172 153 173 205 209 154 177 182 174 172 179 162 213 191 183 135 117 121 61 315 341 121 102 360 348 24 65 74 66 67 108 110 116 100 124 107
177 176 177 174 161 165 159 158 139 141 251 222 186 185 200 173 168 165 167 156 148 127 149 152 143 123 68 316 81 134 59 202 40 332 77 98 98 90 110 130 114 114 131
178 175 174 171 165 166 158 168 161 180 199 218 197 196 167 164 174 169 166 156 132 147 153 165 153 141 133 111 354 124 119 156 137 21 3 330 124 150 153 175 147 148 147
174 177 171 174 169 173 177 168 174 186 204 215 184 167 163 173 177 178 156 149 148 152 149 136 133 132 130 137 152 66 75 42 74 125 224 305 321 252 206 177 179 179 152
177 172 171 173 179 172 178 178 184 191 205 206 162 150 160 164 166 170 148 155 153 140 162 162 166 167 164 130 139 123 121 155 189 124 118 278 211 233 243 192 183 194 181